Wind_Speed
16 15 15 4 1 2 4 7 6 13 6 3 3 6 5 4 3 3 18 19 30 39 36 32 29 28 26 26 25 24 28 26 23 20 18 18 17 17 17 17 17 17 17 17 17 16 15 15 16
15 18 4 2 4 6 7 8 13 15 11 2 4 4 4 2 0 8 16 27 34 40 37 33 29 28 27 27 26 25 27 25 24 20 18 17 17 17 17 17 16 16 17 16 16 15 15 15 16
14 13 1 3 5 16 6 9 13 11 9 5 3 2 4 6 1 19 20 37 38 40 37 33 29 28 28 27 27 27 26 24 23 21 20 18 18 17 16 16 15 15 15 15 15 14 14 15 15
9 4 3 5 17 8 15 9 19 10 9 3 6 4 4 1 13 13 32 39 37 39 36 33 30 28 28 28 28 27 26 23 23 22 21 19 19 17 17 16 15 15 14 15 15 14 14 14 15
7 3 5 9 22 9 9 13 21 16 12 6 3 5 7 3 18 25 36 39 37 36 36 33 30 28 28 29 29 28 25 24 23 22 21 20 19 18 16 15 15 14 13 14 14 14 13 12 13
2 2 6 19 18 10 15 21 18 14 16 13 3 7 6 17 25 30 33 40 37 38 35 34 31 29 29 29 29 29 26 24 23 23 21 20 20 18 16 15 15 13 13 15 15 14 12 11 12
4 2 11 17 13 9 13 16 15 9 9 9 5 4 1 3 22 29 30 37 34 36 37 36 31 29 29 29 29 28 27 24 23 22 22 20 19 18 17 16 15 13 14 16 14 12 10 6 12
0 3 6 8 12 13 8 7 9 7 14 9 8 3 4 6 26 31 27 34 36 37 38 37 33 31 30 28 29 28 26 24 23 22 21 20 19 18 17 16 15 14 15 15 12 9 8 8 13
1 3 12 12 5 11 14 15 3 9 5 11 2 8 7 23 29 26 33 28 30 35 37 38 35 33 31 29 28 27 26 25 23 22 22 21 18 18 17 16 16 16 15 14 10 8 8 10 16
4 4 5 5 7 8 12 11 9 8 14 12 5 8 18 27 20 14 24 26 28 31 37 38 36 35 32 30 29 28 27 26 24 22 23 22 19 17 17 15 15 16 14 12 10 10 13 13 17
5 12 10 13 12 11 9 14 7 5 7 3 7 14 7 16 16 10 16 28 30 33 34 37 37 35 34 32 31 30 29 28 26 25 23 22 18 17 17 16 16 16 13 12 12 13 10 13 11
7 11 12 8 7 10 12 8 9 10 10 12 16 14 13 10 17 18 14 21 28 30 32 36 37 36 34 33 32 31 31 29 28 27 25 24 20 20 18 16 17 16 14 16 12 12 11 13 12
8 8 11 12 12 12 13 13 12 19 9 11 15 11 14 16 12 17 15 21 25 28 32 35 38 38 38 35 35 33 31 30 29 26 25 26 22 22 19 18 19 16 17 15 15 12 13 15 17
6 15 16 16 16 13 13 14 6 23 9 17 17 13 15 11 16 19 18 18 26 26 27 33 35 39 40 38 37 35 31 28 28 26 25 24 26 20 21 20 19 18 20 18 14 14 16 17 18
9 8 14 15 8 10 11 17 24 16 15 18 17 15 14 8 14 16 26 26 28 30 30 35 31 37 39 38 36 35 35 30 28 27 27 21 23 20 24 22 22 21 20 18 13 15 18 18 18
13 7 7 13 10 11 13 23 17 12 19 21 19 12 11 10 12 20 20 23 27 26 34 36 28 31 38 37 36 35 37 32 29 29 29 26 25 23 22 23 23 22 18 16 15 19 19 18 18
5 8 9 13 11 15 12 21 17 18 19 21 18 15 9 9 6 17 21 26 28 31 33 35 30 26 34 37 34 32 31 31 31 29 28 31 27 26 26 25 24 22 20 18 20 21 20 19 18
5 6 11 14 15 12 15 13 7 11 15 14 10 13 11 9 7 19 25 29 30 29 34 36 33 29 33 34 33 28 31 32 31 30 29 30 28 28 28 27 25 25 23 20 19 21 20 19 20
15 19 21 20 20 15 17 16 12 8 11 10 11 8 14 14 8 17 23 21 26 29 29 34 33 31 32 30 31 32 30 33 34 32 31 31 33 30 27 27 28 28 26 23 23 25 24 23 23
20 21 21 22 15 11 17 19 15 13 15 14 15 12 10 14 15 11 20 24 18 28 31 31 32 32 31 29 27 29 28 31 34 32 32 33 35 31 29 29 31 30 28 27 28 29 28 20 27
17 17 18 20 15 18 16 18 16 11 12 15 17 17 12 11 14 11 14 23 29 31 35 32 35 35 34 30 29 26 26 27 29 33 33 32 32 32 32 31 32 31 31 30 29 31 32 23 30
22 21 20 19 14 15 11 10 16 14 16 18 18 16 15 12 11 14 9 21 30 30 33 33 32 33 34 32 29 29 27 26 23 32 35 33 32 33 32 32 32 33 32 31 31 31 32 30 27
11 12 16 18 17 12 15 5 6 13 17 17 15 17 17 12 12 10 15 15 32 35 33 30 31 31 30 33 30 28 26 25 27 32 31 30 30 29 29 31 33 33 33 32 31 31 31 31 27
15 12 18 12 9 10 12 11 12 13 23 21 21 19 18 14 12 8 15 14 25 30 32 32 29 30 29 32 31 31 32 28 29 32 35 32 31 31 30 32 33 34 33 32 30 30 32 31 26
7 5 2 2 4 5 5 10 20 12 20 22 21 19 19 16 12 11 10 8 20 25 28 32 30 28 33 34 33 35 32 35 35 35 36 37 35 34 34 34 34 34 33 32 30 29 30 31 27
11 3 1 4 2 5 5 6 8 16 21 21 23 19 16 15 15 15 11 8 19 24 26 29 30 29 31 32 31 32 33 35 34 36 38 41 42 41 39 37 36 34 32 30 27 28 28 28 25
3 4 5 3 4 3 4 5 10 9 9 21 18 13 11 16 16 15 11 9 19 26 30 33 32 30 29 29 29 28 34 31 34 36 40 40 40 42 41 39 37 33 30 28 26 26 27 24 23
4 7 3 0 3 4 3 8 3 17 14 14 16 15 12 9 15 13 13 10 20 25 25 25 26 28 30 29 28 29 32 33 33 36 40 38 37 39 39 37 35 31 27 25 24 22 20 20 18
9 9 5 6 3 2 4 2 10 16 16 9 5 4 5 9 14 9 8 13 19 22 24 23 24 24 24 26 26 27 29 31 34 38 37 36 35 36 35 36 34 30 27 22 19 19 16 13 12
8 12 8 4 2 1 2 2 17 21 13 10 15 13 13 16 13 13 14 17 20 21 19 18 12 9 4 14 17 15 19 19 21 28 31 30 27 25 25 26 26 26 23 19 17 16 14 12 10
Wind_Direction
315 316 310 303 44 224 228 241 244 274 297 247 107 98 125 123 207 176 156 156 162 161 165 164 162 158 157 153 157 155 147 146 143 142 143 140 136 132 129 122 120 119 113 110 108 105 103 106 104
316 321 285 257 186 231 242 241 245 244 239 234 81 98 101 135 229 122 137 168 163 161 164 165 164 163 162 160 157 154 148 148 145 146 149 146 142 137 130 127 124 121 117 113 109 105 102 103 106
311 288 14 185 216 228 220 238 255 250 254 205 118 75 98 158 121 152 137 159 160 160 165 166 165 167 167 162 157 154 153 150 150 150 151 148 144 138 136 130 126 122 119 115 110 104 103 105 104
314 324 250 233 236 240 225 245 263 282 310 203 157 135 65 34 150 156 154 159 157 160 166 166 166 171 168 162 158 153 149 155 154 155 151 149 145 143 137 135 128 125 122 118 113 108 109 109 107
305 278 234 234 241 243 259 244 252 266 270 192 221 175 138 92 146 154 148 154 155 155 167 167 169 170 167 162 159 157 154 156 159 154 154 152 149 146 143 138 134 131 128 122 116 112 109 110 109
307 177 241 236 238 227 232 257 259 265 276 246 270 149 178 149 144 156 150 156 156 160 167 170 170 171 170 164 162 162 159 158 161 161 156 156 152 152 149 145 139 137 131 121 114 111 107 110 114
175 274 246 258 258 257 240 255 261 265 273 251 193 191 235 195 155 160 152 156 156 165 168 171 171 171 171 167 165 167 165 163 163 164 160 161 157 159 156 150 144 139 133 124 119 120 116 125 128
292 238 245 242 248 265 280 297 305 310 284 255 133 231 219 211 163 165 154 156 161 164 167 171 172 172 171 169 168 167 169 164 166 165 164 161 162 167 165 155 148 142 139 133 133 135 136 126 133
316 270 251 260 268 276 299 299 354 318 331 319 229 147 167 159 161 161 139 147 151 159 168 173 174 174 173 171 169 168 170 168 169 168 169 166 168 174 166 159 153 149 144 138 134 130 131 133 138
182 229 259 289 310 305 313 311 325 355 342 318 12 62 136 149 169 155 154 158 160 160 167 176 176 177 174 172 171 171 172 172 172 176 172 174 174 174 169 163 160 154 152 148 149 139 123 133 142
255 257 282 289 297 302 308 305 319 333 294 239 1 334 196 163 163 198 170 167 169 160 164 176 177 180 177 174 175 176 175 176 175 178 181 175 180 174 173 169 167 161 158 150 148 148 148 143 143
289 289 281 291 298 303 295 294 287 268 263 280 303 299 271 239 166 198 180 169 167 166 165 177 183 181 181 179 180 180 179 179 181 184 188 181 181 180 183 181 174 170 167 151 157 160 152 154 154
297 295 301 317 310 294 290 282 273 277 288 271 287 307 322 211 205 196 183 165 171 172 166 180 183 182 182 183 183 183 183 183 186 189 186 183 191 182 181 184 179 178 167 167 170 184 174 163 162
301 307 298 296 286 288 294 297 289 276 296 286 285 288 291 218 191 184 179 195 172 176 178 172 180 184 186 184 186 186 183 184 184 189 185 185 186 193 192 183 183 187 175 171 186 179 170 170 167
272 302 303 284 283 283 294 271 262 290 294 280 271 270 273 242 205 195 185 196 183 180 181 176 175 188 188 187 190 189 185 183 186 189 185 186 192 193 193 198 176 167 170 176 184 175 177 175 176
287 283 263 265 258 257 231 258 263 268 275 276 281 257 249 266 221 204 194 196 201 184 184 182 176 182 188 189 188 186 187 189 190 193 189 189 193 197 201 193 187 175 180 201 193 181 180 181 182
230 263 251 284 255 261 246 263 253 247 253 265 268 263 244 248 203 196 196 201 195 191 190 190 190 183 185 187 187 189 187 190 195 196 197 193 193 199 203 198 196 190 196 200 188 183 192 181 176
227 227 264 264 276 285 292 286 285 243 243 253 257 248 241 242 223 216 198 211 194 186 191 198 199 189 190 187 188 193 188 192 196 197 196 195 199 199 203 204 205 194 195 194 190 188 189 190 176
260 266 268 270 271 273 274 278 280 287 291 291 281 270 250 242 232 212 178 199 196 189 182 186 190 189 177 177 174 180 186 192 197 196 195 198 202 205 201 204 203 194 192 197 197 183 178 170 177
269 278 272 276 272 255 269 271 267 262 268 264 275 278 275 256 226 201 187 190 213 188 191 186 187 192 187 182 182 182 185 190 195 199 198 205 202 204 205 209 206 196 196 198 192 189 173 177 186
277 272 274 273 302 279 260 273 262 250 251 271 264 265 250 263 238 208 196 183 204 192 189 188 190 190 188 177 175 180 182 188 193 200 204 202 204 207 209 215 205 203 203 199 201 202 197 185 194
272 269 265 271 276 271 202 258 249 242 250 254 258 258 263 250 257 220 211 189 187 199 188 192 188 188 190 187 181 181 181 186 196 193 198 197 204 211 210 217 209 210 207 207 209 211 210 206 195
276 281 261 262 260 265 246 253 260 236 244 241 242 250 247 241 240 243 220 204 187 184 186 188 189 186 186 186 190 192 192 193 196 191 193 197 200 208 211 213 213 213 213 216 213 210 212 213 212
262 278 257 244 244 245 242 209 246 221 225 237 241 238 251 228 226 229 228 184 186 187 183 188 183 186 186 186 189 190 192 189 192 192 196 201 208 213 217 216 215 215 216 218 217 217 213 212 217
235 304 305 218 205 233 171 202 241 237 228 229 232 236 237 225 212 213 233 187 182 185 185 177 178 183 188 191 193 193 190 193 196 199 201 208 209 215 219 216 216 217 218 220 218 214 214 211 214
290 225 270 246 236 269 260 243 249 231 229 225 233 230 235 224 212 214 222 200 168 178 182 178 184 186 187 191 196 197 197 199 200 204 210 219 218 224 221 215 216 218 217 218 217 213 212 211 212
8 172 274 281 219 251 235 300 326 341 284 228 236 220 221 223 213 208 205 178 175 180 180 180 184 190 190 191 200 205 205 201 204 210 219 223 227 227 220 215 214 214 213 215 215 212 210 209 209
275 325 317 312 288 281 304 303 286 328 314 212 225 231 242 233 209 193 196 166 174 174 175 181 181 183 192 196 203 211 209 205 209 215 217 221 225 223 219 215 213 210 209 208 207 202 198 192 183
6 2 338 290 222 247 308 269 341 334 344 356 58 220 256 210 179 163 156 151 153 160 167 170 180 183 193 203 210 216 213 209 214 217 220 222 222 221 218 213 209 205 200 193 190 180 176 176 176
356 342 337 273 238 175 251 301 347 342 328 42 51 39 37 58 71 73 76 78 66 69 90 94 100 125 151 204 207 202 207 210 206 205 212 214 212 209 208 204 198 189 179 171 176 170 187 189 206
Height
783 781 779 778 801 796 793 779 759 757 751 730 726 735 742 740 750 767 747 751 755 762 768 772 778 782 785 787 790 795 797 800 804 809 813 815 817 820 822 823 824 826 826 828 829 829 830 830 832
783 782 779 782 797 800 787 767 763 747 735 731 726 729 738 749 742 743 748 753 755 761 767 772 777 783 785 787 789 794 798 801 803 809 813 816 818 820 822 824 825 826 827 829 830 830 831 832 833
781 781 786 789 790 778 779 761 752 740 731 730 730 725 732 744 740 741 743 752 754 759 767 772 777 782 785 788 791 794 798 803 803 808 811 815 818 821 823 824 826 827 828 829 830 831 832 833 834
783 778 779 785 772 763 760 752 741 743 733 726 725 735 735 734 735 738 744 750 753 758 766 772 777 782 785 788 792 795 798 803 805 807 811 815 818 821 823 825 827 828 829 830 831 832 833 834 834
780 780 785 777 762 759 754 748 739 742 737 730 727 737 740 734 735 739 744 748 751 758 765 771 776 781 786 788 793 796 799 802 807 808 811 814 818 821 824 825 827 829 830 830 831 832 833 834 835
786 779 784 766 760 754 748 741 738 739 732 724 733 734 739 733 733 739 742 747 750 756 763 771 775 780 786 787 792 796 800 802 806 808 811 815 817 821 823 825 826 829 829 830 831 832 834 835 836
786 785 771 765 763 756 747 737 739 738 737 729 722 736 739 735 734 738 742 747 751 756 761 769 774 778 784 787 791 796 800 803 806 809 811 814 817 820 822 824 826 828 829 830 831 833 834 835 836
782 782 770 761 763 758 747 740 734 738 733 718 713 741 744 733 734 735 743 746 750 754 760 766 772 777 782 786 790 795 800 803 806 809 812 815 817 820 821 823 825 827 829 830 831 833 834 835 836
775 788 766 762 765 760 748 746 739 740 742 733 720 718 725 728 734 735 739 747 751 754 758 763 770 775 779 784 789 795 799 802 806 809 811 814 816 819 821 823 824 826 828 830 831 833 834 835 836
778 783 767 761 759 760 754 751 750 746 742 732 729 726 724 727 737 735 734 740 745 750 755 761 766 772 777 783 788 793 797 801 804 809 811 813 816 818 820 822 824 826 828 829 831 833 834 835 836
771 769 765 761 757 756 757 753 751 749 745 737 750 745 732 728 728 737 736 735 739 744 752 758 764 770 775 779 785 791 795 800 802 806 810 813 815 818 820 821 823 825 827 829 831 833 834 836 837
778 767 763 760 757 756 756 753 749 749 744 740 738 741 736 731 719 733 734 734 739 743 747 755 762 767 773 776 783 788 793 797 801 804 808 811 813 816 819 820 822 824 826 828 830 832 834 835 836
774 767 761 760 757 755 751 749 748 737 742 740 736 735 735 731 729 727 731 733 738 741 743 751 758 764 768 773 779 785 790 793 797 802 805 809 812 814 816 818 821 823 825 826 828 831 833 833 834
772 770 764 759 756 754 753 749 747 728 739 738 736 735 733 728 725 724 727 735 733 738 744 747 754 759 764 769 774 781 786 792 794 798 802 806 810 813 815 816 818 820 822 825 827 829 831 832 833
772 774 765 758 753 753 751 747 737 735 732 730 728 728 727 728 725 723 720 729 730 733 739 745 751 756 760 765 772 777 782 789 792 794 799 803 807 810 813 815 817 818 820 823 825 828 829 830 832
777 776 774 748 750 745 750 741 737 738 732 726 722 721 721 720 720 721 724 728 733 733 735 741 748 753 756 762 768 773 778 784 789 792 794 799 803 807 810 813 814 817 819 822 824 826 827 828 830
776 776 768 756 743 742 742 735 731 730 727 721 717 714 714 715 715 718 719 726 729 732 733 738 744 749 754 759 765 769 774 779 785 789 791 796 799 803 806 809 812 814 817 820 822 824 826 828 829
774 771 756 753 736 736 736 732 726 723 720 717 716 714 711 713 712 714 716 721 726 728 731 736 741 746 752 756 761 767 772 776 781 785 787 792 796 798 802 805 808 811 814 816 819 821 824 826 828
754 755 752 743 735 738 733 729 725 723 720 720 713 712 704 703 710 713 714 716 722 726 729 732 737 742 749 752 754 761 767 773 778 781 783 788 791 795 797 801 804 806 809 812 815 818 821 824 826
750 748 747 733 732 737 729 725 720 718 715 713 709 708 705 699 703 708 711 711 719 722 726 730 733 738 744 748 753 758 764 770 775 779 781 783 787 791 794 797 799 802 805 807 810 813 817 820 822
748 746 739 736 733 725 725 726 717 709 706 702 700 697 702 702 698 699 701 703 710 715 721 725 728 733 739 744 750 757 762 768 772 775 776 779 784 787 789 793 796 798 800 802 805 807 810 812 817
748 733 733 736 741 733 719 725 710 704 702 698 694 691 686 691 694 692 691 694 700 711 715 721 725 728 734 741 748 752 755 760 764 766 772 775 779 782 785 789 792 794 796 797 799 802 805 807 809
740 731 731 730 731 730 723 729 708 699 697 690 687 684 683 685 685 686 687 691 696 702 708 715 722 727 732 737 743 749 754 759 761 765 769 772 775 779 782 785 788 790 792 793 795 796 799 802 804
731 730 725 722 721 717 705 719 695 691 681 680 677 676 673 679 682 685 685 685 691 697 702 709 717 722 728 734 739 743 748 752 756 759 763 767 771 775 778 781 783 786 787 789 790 792 793 795 799
729 728 718 723 717 734 689 704 680 668 667 667 666 668 667 667 673 678 680 680 688 693 699 705 712 719 724 729 734 738 742 746 749 754 757 761 764 768 770 774 778 781 782 784 786 787 789 791 792
730 733 738 745 744 729 689 710 666 654 652 653 655 658 661 661 664 668 674 677 681 688 696 701 708 714 719 725 730 734 738 741 744 748 750 754 756 760 765 767 772 776 778 781 783 784 785 787 789
720 723 707 717 727 706 681 664 651 652 652 647 650 652 656 656 658 664 671 674 679 685 689 695 702 708 716 721 727 732 733 737 739 741 745 747 751 754 758 762 766 771 774 777 779 781 783 785 786
729 727 706 712 715 703 681 683 669 669 645 638 646 648 650 651 653 660 667 674 678 683 690 697 702 707 712 718 723 728 729 733 735 737 738 742 745 749 754 758 763 767 769 773 776 779 781 783 785
734 732 725 714 697 700 690 682 685 676 656 648 643 640 645 643 649 657 664 671 676 683 690 695 702 706 712 716 721 725 727 730 731 731 734 734 742 746 750 756 760 763 766 770 775 776 782 785 786
740 748 744 728 695 696 695 685 692 684 667 653 652 655 652 652 657 665 672 678 685 690 695 701 707 711 714 718 720 723 726 729 730 729 732 734 740 748 753 758 761 761 765 769 777 778 786 785 786